[[{"header":{"parameterUnit":"m.s-1","parameterCategory":1,"la1":30.2991,"la2":30.254,"lo1":-89.0895,"lo2":-89.0444,"dy":0.0017,"dx":0.0017,"nx":28,"ny":28,"refTime":"2023-08-01T09:00:00:Z","depth":0,"parameterNumber":2,"parameterNumberName":"U-component_of_WINDS"},"data":[0,0,0,0,0,0,0,0,0,0,0,0,0,0,0,0,0,0,0,0,0,0,0,0,0,0,0,0,0,0,0,0,0,0,0,0,0,0,0,0,0,0,0,0,0,0,0,0,0,0,0,0,0,0,0,0,0,0,1.5876,1.5875,0,1.5833,1.5833,1.5832,1.5756,1.5755,1.5753,1.5752,1.5708,1.5709,1.5709,0,0,0,0,0,0,0,0,0,0,0,0,0,1.589,1.5891,1.5876,1.5875,1.5875,1.5833,1.5833,1.5832,1.5757,1.5755,1.5753,1.5751,1.5708,1.5708,1.5709,0,0,0,0,0,0,0,0,0,0,0,0,0,1.587,1.5891,1.5876,1.5832,1.5828,1.5833,1.5833,1.5832,1.5757,1.5755,1.5753,1.5751,1.5708,1.5708,1.5709,1.5754,0,0,1.571,1.571,0,0,0,0,0,0,0,0,1.5871,1.5869,1.5839,1.5835,1.583,1.5798,1.5821,1.5806,1.5757,1.5784,1.5752,1.575,1.574,1.5737,1.5734,1.5751,1.575,1.571,1.571,1.571,1.571,0,0,0,0,0,0,0,1.5872,1.5871,1.5859,1.5839,1.5833,1.5814,1.5809,1.5818,1.5774,1.5781,1.5776,1.5772,1.5737,1.5734,1.5732,1.5749,1.571,1.571,1.571,1.571,1.5797,1.5799,0,0,0,0,0,0,1.588,1.5872,1.586,1.5858,1.5846,1.5815,1.5809,1.581,1.5774,1.5767,1.5774,1.5768,1.5735,1.5732,1.5731,1.5778,1.571,1.571,1.571,1.5795,1.5797,1.5799,0,0,0,0,0,0,1.5881,1.588,1.5862,1.5863,1.586,1.5818,1.5819,1.5811,1.5808,1.5768,1.576,1.5779,1.5733,1.573,1.5747,1.5775,1.571,1.571,1.5792,1.5795,1.5798,1.5874,0,0,0,0,0,0,1.5882,1.5881,1.5898,1.5864,1.586,1.588,1.5821,1.5811,1.5808,1.5801,1.5771,1.5764,1.5731,1.5747,1.5748,1.5774,1.5711,1.5789,1.5794,1.5797,1.5869,1.5879,1.5889,0,0,0,0,0,1.5883,1.5922,1.5899,1.5898,1.5881,1.5882,1.588,1.5841,1.5811,1.5827,1.5801,1.5765,1.5773,1.575,1.575,1.5777,1.5787,1.5792,1.5797,1.5864,1.5877,1.5888,0,0,0,0,0,0,1.5961,1.5917,1.5891,1.5921,1.5906,1.5869,1.5889,1.5857,1.585,1.5843,1.5796,1.5789,1.5812,1.5796,1.5772,1.5816,1.5774,1.5779,1.5825,1.5837,1.5847,1.5849,1.5711,0,0,0,0,0,1.5981,1.5987,1.5948,1.5978,1.5972,1.5932,1.5931,1.5902,1.5885,1.5878,1.5854,1.5838,1.5836,1.5836,1.5833,1.5867,1.5857,1.5885,1.5895,1.5903,1.5907,1.5921,1.5931,1.5815,1.5815,1.5815,0,0,1.6024,1.6001,1.6007,1.5993,1.5978,1.5983,1.5927,1.5936,1.5939,1.5879,1.5893,1.5875,1.5854,1.5878,1.5888,1.5866,1.5937,1.5909,1.5916,1.5916,1.5927,1.5938,1.5947,1.5819,1.5818,1.5817,0,0,1.6104,1.6088,1.611,1.6095,1.6073,1.6045,1.6051,1.6019,1.6004,1.6017,1.5971,1.5974,1.5973,1.5959,1.5952,1.6024,1.5989,1.6024,1.6075,1.6088,1.6097,1.6105,1.6128,1.6137,1.6029,1.6029,1.6029,0,1.616,1.6167,1.6125,1.6136,1.613,1.6075,1.6095,1.6084,1.6061,1.6058,1.6033,1.6029,1.6011,1.603,1.6047,1.6044,1.6047,1.6027,1.61,1.6107,1.6114,1.6135,1.6144,1.6033,1.6033,1.6032,1.6032,0,1.6235,1.624,1.626,1.6239,1.6235,1.6251,1.621,1.6211,1.6183,1.6158,1.617,1.6147,1.6136,1.6139,1.6112,1.6153,1.6139,1.6108,1.6065,1.613,1.6148,1.6156,1.6039,1.6038,1.6037,1.6036,0,0,1.6364,1.6317,1.6325,1.6313,1.6283,1.6285,1.6298,1.6287,1.6287,1.6274,1.6281,1.628,1.625,1.6242,1.6213,1.6225,1.6279,1.6191,1.619,1.6206,1.632,1.6342,1.6352,1.6256,1.6258,1.6259,1.632,0,1.6435,1.6453,1.6415,1.6442,1.6444,1.6392,1.6402,1.6384,1.6361,1.6359,1.6333,1.6332,1.6294,1.6288,1.6298,1.6271,1.6301,1.6266,1.6261,1.6261,1.6266,1.6362,1.6386,1.6445,1.6328,1.6329,1.633,0,1.6521,1.651,1.6537,1.6502,1.6502,1.6512,1.6497,1.6497,1.6475,1.6456,1.6446,1.6411,1.6419,1.6378,1.6387,1.6364,1.6359,1.6346,1.6347,1.6343,1.6298,1.6359,1.6464,1.6472,1.6342,1.6341,1.634,0,1.6609,1.6601,1.6615,1.6607,1.6568,1.6575,1.6559,1.6535,1.653,1.6517,1.6512,1.6501,1.6494,1.6486,1.6447,1.6422,1.646,1.6417,1.6443,1.6444,1.6452,1.6452,1.6555,1.6454,1.6454,1.6453,1.6453,0,1.6691,1.6709,1.6653,1.6661,1.6679,1.6634,1.6653,1.6631,1.661,1.6612,1.6567,1.657,1.652,1.6517,1.6488,1.6498,1.6496,1.648,1.6472,1.6483,1.6485,1.6478,1.6472,1.6456,1.6455,1.6455,1.6454,0,1.6791,1.6755,1.6766,1.6727,1.6718,1.6732,1.6699,1.6704,1.6677,1.6681,1.6679,1.6637,1.6631,1.6592,1.6578,1.6558,1.6578,1.6562,1.6585,1.6579,1.6606,1.6603,1.6708,1.6718,1.6612,1.6614,1.6614,0,1.6845,1.6857,1.682,1.6817,1.6803,1.6801,1.6795,1.6751,1.6746,1.672,1.6728,1.6719,1.6708,1.6701,1.6668,1.6656,1.6639,1.6676,1.6637,1.6646,1.6636,1.6635,1.6634,1.6684,1.6685,1.6687,1.6687,0,1.6944,1.6925,1.6918,1.6904,1.6897,1.6884,1.6869,1.6869,1.682,1.6817,1.681,1.6802,1.6786,1.6776,1.6758,1.674,1.6705,1.67,1.6705,1.6716,1.6727,1.6718,1.6605,1.6698,1.6697,1.6696,1.6695,1.6695,1.7021,1.7028,1.7001,1.6994,1.6977,1.6963,1.6965,1.6938,1.6931,1.6914,1.6889,1.6885,1.6859,1.6831,1.6816,1.6811,1.6791,1.6799,1.6801,1.6803,1.6807,1.673,1.6808,1.6808,1.6808,1.6807,1.6807,0,1.7115,1.7095,1.7089,1.7067,1.7061,1.7028,1.7008,1.7005,1.7001,1.6981,1.6971,1.6961,1.6951,1.6917,1.6902,1.6905,1.6888,1.6902,1.69,1.6896,1.6828,1.6823,1.6916,1.6916,1.6916,1.6916,1.6916,1.6916,1.7163,1.7172,1.7149,1.7148,1.7128,1.7123,1.7114,1.71,1.7082,1.7073,1.7064,1.7042,1.7015,1.6998,1.6986,1.6976,1.6972,1.6991,1.6976,1.6912,1.6901,1.6891,1.6887,1.6991,1.6991,1.7044,1.7044,1.7045]},{"header":{"parameterUnit":"m.s-1","parameterCategory":1,"la1":30.2991,"la2":30.254,"lo1":-89.0895,"lo2":-89.0444,"dy":0.0017,"dx":0.0017,"nx":28,"ny":28,"refTime":"2023-08-01T09:00:00:Z","depth":0,"parameterNumber":3,"parameterNumberName":"V-component_of_WINDS"},"data":[0,0,0,0,0,0,0,0,0,0,0,0,0,0,0,0,0,0,0,0,0,0,0,0,0,0,0,0,0,0,0,0,0,0,0,0,0,0,0,0,0,0,0,0,0,0,0,0,0,0,0,0,0,0,0,0,0,0,2.9101,2.9101,0,2.9141,2.9142,2.9142,2.9112,2.911,2.9109,2.9108,2.9144,2.9146,2.9149,0,0,0,0,0,0,0,0,0,0,0,0,0,2.8991,2.8993,2.9101,2.9101,2.9102,2.9141,2.9142,2.9142,2.9112,2.911,2.9109,2.9107,2.9144,2.9146,2.9149,0,0,0,0,0,0,0,0,0,0,0,0,0,2.9036,2.8994,2.9101,2.9092,2.9091,2.9141,2.9142,2.9142,2.9112,2.911,2.9108,2.9107,2.9143,2.9146,2.9149,2.9209,0,0,2.9159,2.9161,0,0,0,0,0,0,0,0,2.9033,2.904,2.9092,2.9092,2.9092,2.912,2.9116,2.9165,2.9113,2.9104,2.9108,2.9106,2.9137,2.9141,2.9153,2.9211,2.9212,2.916,2.9162,2.9163,2.9164,0,0,0,0,0,0,0,2.903,2.9038,2.9117,2.9093,2.9093,2.9083,2.9088,2.9125,2.9131,2.9105,2.9103,2.9108,2.9137,2.915,2.9153,2.9213,2.9159,2.9162,2.9164,2.9166,2.9319,2.9321,0,0,0,0,0,0,2.9029,2.9035,2.9115,2.9118,2.9057,2.9087,2.9092,2.9113,2.9131,2.9132,2.911,2.9107,2.9145,2.915,2.9155,2.9224,2.9163,2.9166,2.9168,2.9317,2.932,2.9322,0,0,0,0,0,0,2.9027,2.9036,2.9114,2.9076,2.9085,2.9091,2.9115,2.9114,2.9127,2.9135,2.9135,2.9122,2.9144,2.915,2.9195,2.9225,2.9167,2.917,2.9315,2.9318,2.9321,2.9365,0,0,0,0,0,0,2.9024,2.9036,2.906,2.9077,2.9088,2.9156,2.9117,2.9117,2.9134,2.913,2.9146,2.9147,2.9143,2.9191,2.9199,2.9229,2.9173,2.9312,2.9316,2.932,2.9361,2.9369,2.9376,0,0,0,0,0,2.902,2.907,2.9061,2.9071,2.9118,2.9158,2.9163,2.9159,2.9136,2.9159,2.9164,2.9147,2.9221,2.9196,2.9204,2.9236,2.931,2.9315,2.932,2.9357,2.9368,2.9376,0,0,0,0,0,0,2.9054,2.9072,2.9062,2.912,2.9138,2.9153,2.9182,2.917,2.9193,2.9188,2.918,2.9184,2.9231,2.9238,2.921,2.9293,2.9262,2.9268,2.9287,2.9297,2.9305,2.9301,2.9176,0,0,0,0,0,2.9069,2.9101,2.9114,2.9163,2.9173,2.9176,2.9193,2.9188,2.9205,2.9212,2.922,2.9236,2.9263,2.928,2.9306,2.9362,2.9364,2.9388,2.9395,2.9402,2.9407,2.9436,2.9446,2.9338,2.9338,2.9338,0,0,2.9098,2.9112,2.9133,2.9171,2.9184,2.9216,2.9182,2.9218,2.9241,2.9217,2.9261,2.9267,2.9284,2.9335,2.9358,2.9342,2.9438,2.9408,2.9413,2.9415,2.9442,2.9452,2.9461,2.9341,2.934,2.934,0,0,2.9169,2.9183,2.9225,2.924,2.926,2.9262,2.9272,2.9289,2.9292,2.9337,2.9319,2.9345,2.9392,2.9405,2.9417,2.9492,2.9476,2.95,2.954,2.9568,2.9577,2.9584,2.9609,2.9618,2.9506,2.9506,2.9506,0,2.9202,2.9252,2.9248,2.9285,2.9301,2.9283,2.9324,2.9337,2.9364,2.9375,2.9358,2.9415,2.9426,2.9478,2.9497,2.9508,2.9518,2.9497,2.9576,2.9583,2.959,2.9614,2.9624,2.9508,2.9508,2.9508,2.9508,0,2.9291,2.9326,2.9357,2.9385,2.9405,2.9444,2.9444,2.9464,2.9457,2.946,2.9504,2.9516,2.9542,2.9555,2.9548,2.9606,2.9596,2.9578,2.9545,2.9603,2.9625,2.9635,2.9512,2.9511,2.9511,2.951,0,0,2.9384,2.941,2.9421,2.9433,2.9455,2.948,2.9517,2.9545,2.9561,2.9581,2.961,2.965,2.9633,2.9647,2.9642,2.9667,2.9723,2.9645,2.9645,2.9658,2.9786,2.9799,2.9809,2.9713,2.9715,2.9716,2.9784,0,2.9454,2.952,2.9518,2.9579,2.9609,2.9592,2.9624,2.964,2.9643,2.9668,2.9671,2.9699,2.9675,2.9684,2.9708,2.9711,2.9748,2.9706,2.9738,2.974,2.9733,2.9821,2.9835,2.9898,2.9793,2.9794,2.9795,0,2.9545,2.9568,2.9633,2.9649,2.9662,2.9691,2.9715,2.974,2.9756,2.9757,2.9773,2.9763,2.9799,2.9767,2.9814,2.9786,2.9799,2.9802,2.9805,2.9806,2.977,2.9824,2.9919,2.9927,2.9809,2.9808,2.9807,0,2.9603,2.9652,2.9696,2.9707,2.9728,2.9748,2.9757,2.9772,2.9789,2.9809,2.9819,2.9844,2.9857,2.9875,2.9871,2.9848,2.9919,2.9887,2.9919,2.9919,2.9933,2.9932,3.003,2.9944,2.9944,2.9944,2.9944,0,2.9681,2.9721,2.9723,2.975,2.9793,2.9789,2.9832,2.9838,2.9852,2.9878,2.9865,2.989,2.9884,2.9908,2.9905,2.9944,2.995,2.995,2.9949,2.9951,2.9951,2.9958,2.9953,2.9946,2.9946,2.9945,2.9945,0,2.9754,2.9757,2.9804,2.982,2.9825,2.9856,2.9868,2.9893,2.9896,2.9929,2.9937,2.994,2.9968,2.9967,2.9998,2.9996,3.0043,3.0037,3.0038,3.0036,3.0068,3.0064,3.0172,3.0186,3.0093,3.0094,3.0095,0,2.9802,2.9833,2.9852,2.987,2.9881,2.9909,2.9926,2.9923,2.9941,2.9962,2.9983,3.001,3.0032,3.0077,3.0081,3.0104,3.0098,3.0134,3.0101,3.0101,3.0096,3.0094,3.0096,3.014,3.0141,3.0142,3.0143,0,2.9888,2.9888,2.9914,2.994,2.9961,2.9981,3.0,3.0015,3.0013,3.0033,3.0063,3.0079,3.0111,3.0137,3.016,3.0167,3.0154,3.0153,3.0161,3.0163,3.0162,3.0161,3.0054,3.015,3.015,3.0149,3.0149,3.0148,2.9949,2.9974,2.9992,3.0021,3.0035,3.0052,3.0076,3.0082,3.0107,3.0134,3.013,3.0162,3.0176,3.0205,3.0215,3.0239,3.0225,3.0238,3.024,3.0243,3.0246,3.0159,3.0243,3.0243,3.0242,3.0242,3.0242,0,3.0032,3.0043,3.0069,3.0096,3.0119,3.0106,3.0126,3.0145,3.0174,3.0189,3.0211,3.0243,3.0269,3.0275,3.0299,3.0316,3.0311,3.0323,3.032,3.0322,3.0257,3.0247,3.0327,3.0327,3.0327,3.0327,3.0327,3.0327,3.0078,3.012,3.0122,3.0171,3.018,3.0213,3.0225,3.024,3.0253,3.029,3.0312,3.0316,3.0328,3.0352,3.0374,3.0375,3.0384,3.0398,3.0396,3.0335,3.0327,3.0319,3.0309,3.04,3.04,3.0458,3.0459,3.0459]}]]